Regional Weather Roundup
Issued by NWS

Home | Current Version | Previous Version | Text Only | Print | Product List | Glossary Off
Versions: 1 2 3 4 5 6 7 8 9 10 11 12 13 14 15 16 17 18 19 20 21 22 23 24 25 26 27 28 29 30 31 32 33 34 35 36 37 38 39 40 41 42 43 44 45 46 47 48 49 50

014
ASUS45 KBOU 051207
RWRCO

WEATHER ROUNDUP FOR COLORADO
NATIONAL WEATHER SERVICE DENVER/BOULDER CO
500 AM MST MON DEC 05 2016

NOTE: "FAIR" INDICATES FEW OR NO CLOUDS BELOW 12000 FEET WITH NO
SIGNIFICANT WEATHER AND/OR OBSTRUCTIONS TO VISIBILITY.

COZ001>005-013-030-031-051300-
...NORTHWEST COLORADO...

CITY           SKY/WX    TMP DP  RH WIND       PRES   REMARKS
CRAIG          FAIR      25  14  63 CALM      29.70F
HAYDEN         MOCLDY    30  12  47 NW10      29.68F WCI  21
MEEKER         CLOUDY    35  16  45 SW6       29.73F WCI  30
MOUNT WERNER   NOT AVBL
STEAMBOAT SPGS CLOUDY    25  20  81 E5        29.70S WCI  19
WALDEN           N/A     30  18  59 SW13      29.68S WCI  20
$$

COZ006>008-011-051300-
...WEST CENTRAL VALLEYS...

CITY           SKY/WX    TMP DP  RH WIND       PRES   REMARKS
GRAND JUNCTION MOCLDY    26  21  81 E3        29.81F
MONTROSE       MOCLDY    31  20  63 VRB3      29.82F
EAGLE          CLOUDY    29  19  66 VRB3      29.75F
RIFLE          FAIR      26  20  77 W6        29.80F WCI  19
DELTA          MOCLDY    30  21  70 NW3       29.83F
NUCLA          CLOUDY    28  16  59 NE5       29.89F WCI  23
$$

COZ017>023-064>068-051300-
...SOUTHWEST COLORADO...

CITY           SKY/WX    TMP DP  RH WIND       PRES   REMARKS
DURANGO        FAIR      18  14  84 NE3       29.92F
CORTEZ         FAIR      23  19  85 E3        29.92F
PAGOSA SPRINGS FAIR      16  15  96 CALM      29.93F
TELLURIDE      NOT AVBL
WOLF CREEK PAS FAIR      16  10  79 SW18G25   29.95F WCI  -1
$$

COZ009-010-012-014-032>034-037-058>063-051300-
...CENTRAL COLORADO...

CITY           SKY/WX    TMP DP  RH WIND       PRES   REMARKS
ASPEN          CLOUDY    30  19  63 NW3       29.73F
BUENA VISTA    FAIR      30  12  46 SE7       29.74F WCI  23
COPPER MTN     LGT SNOW  27  14  59 MISG      29.77F
BERTHOUD PASS  LGT SNOW  18   5  57 W40G61    29.70S VSB 3/4 WCI  -4
COTTONWOOD PAS CLOUDY    34  12  40 NW6       29.76F WCI  29
GUNNISON       FLURRIES  12   7  80 N3        29.88F
KREMMLING      CLOUDY    41  18  38 W15       29.70S
LEADVILLE      CLOUDY    31  12  45 S12       29.73F WCI  22
MONARCH PASS   CLOUDY    18  10  73 W28G36    29.93F WCI  -1
SALIDA         FAIR      34  10  35 SW8       29.83F WCI  27
SUNLIGHT       CLOUDY    19  14  79 SW20G33   29.79F WCI   4
WILKERSON PASS MOCLDY    23  12  63 SW17G23   29.77F WCI   9
$$

COZ069>075-051300-
...SAN LUIS VALLEY/SANGRE DE CRISTO MOUNTAINS...

CITY           SKY/WX    TMP DP  RH WIND       PRES   REMARKS
ALAMOSA        FAIR       0  -3  87 CALM      29.86F
LA VETA PASS   FAIR      25  12  58 NE29G46   29.77R WCI   8
SAGUACHE       FAIR      14   9  79 NW9       29.86F WCI   2
$$

COZ035-036-038>040-051300-
...NORTHERN COLORADO FRONT RANGE...

CITY           SKY/WX    TMP DP  RH WIND       PRES   REMARKS
DENVER INTL AP FAIR      42  15  33 SE7       29.57F
DMNS CITY PARK   N/A     35  17  48 E8        29.57S WCI  28
AURORA         PTCLDY    36  16  43 VRB3      29.58F
FRONT RANGE AP FAIR      34  19  55 S10       29.58F WCI  26
ERIE MUNI ARPT FAIR      46  14  27 CALM      29.56F
BOULDER MUN AP MOCLDY    52  21  30 W8        29.57R
CENTENNIAL     FAIR      40  15  36 S6        29.58F
BROOMFIELD     FAIR      43  16  33 E5        29.57F
FORT COLLINS   FAIR      48  21  34 W23G30    29.56F
LONGMONT       FAIR      54  20  26 W15G22    29.59R
$$

COZ041-046-047-076>085-087-088-051300-
...PIKES PEAK/PALMER DIVIDE AND SOUTHERN FOOTHILLS...

CITY           SKY/WX    TMP DP  RH WIND       PRES   REMARKS
COLO. SPRINGS  FAIR      37  13  37 E10       29.65S
A. F. ACADEMY  FAIR      38  13  35 CALM      29.62F
SCHRIEVER AFB  NOT AVBL
ELLICOTT       FAIR     N/A N/A N/A SW3       29.63F
FALCON         FAIR      42  12  29 NW7       29.66F
FORT CARSON    FAIR      29  13  50 NW9       29.61F WCI  20
LIMON          FAIR      21  14  74 NW3       29.60F
MONUMENT HILL  FAIR      37  14  38 W14       29.65F
TRINIDAD       FAIR      32  12  43 W13       29.68F WCI  22
$$

COZ042>045-048>051-090-091-051300-
...NORTHEAST COLORADO...

CITY           SKY/WX    TMP DP  RH WIND       PRES   REMARKS
GREELEY ARPT   FAIR      23  14  68 NE6       29.59F WCI  16
AKRON          FAIR      41  15  35 N6        29.56F
BURLINGTON     FAIR      27  13  55 W13       29.60F WCI  16
WRAY           FAIR      30  18  59 SW6       29.59  WCI  24
STERLING       FAIR      21  14  73 CALM      29.57F
HOLYOKE        FAIR      36  19  51 SW5       29.57F
FORT MORGAN    FAIR      24  13  63 NW3       29.59F
$$

COZ086-089-092>099-051300-
...SOUTHEAST COLORADO...

CITY           SKY/WX    TMP DP  RH WIND       PRES   REMARKS
PUEBLO         FAIR      28  15  58 W8        29.62F WCI  20
LA JUNTA       FAIR      29  15  56 S7        29.63F WCI  22
LAMAR          MIX PCPN  17  12  80 SW9       29.61F WCI   6
SPRINGFIELD      N/A     24  17  74 SW9       29.64F WCI  14
$$




USA.gov is the U.S. government's official web portal to all federal, state and local government web resources and services.